Time,TemperatureF,DewpointF,PressureIn,WindDirection,WindDirectionDegrees,WindSpeedMPH,WindSpeedGustMPH,Humidity,HourlyPrecipIn,Conditions,Clouds,dailyrainin,SoftwareType,DateUTC
2013-03-22 18:22:00,72.0,23.0,29.78,West,267,8.0,11.0,16,0.00,,,0.00,,2013-03-23 01:22:00,
2013-03-22 18:32:00,71.0,23.0,29.78,West,278,13.0,16.0,16,0.00,,,0.00,,2013-03-23 01:32:00,
2013-03-22 18:43:00,71.0,23.0,29.78,West,278,13.0,16.0,16,0.00,,,0.00,,2013-03-23 01:43:00,
2013-03-22 18:52:00,69.0,22.0,29.77,WSW,240,5.0,16.0,17,0.00,,,0.00,,2013-03-23 01:52:00,
2013-03-22 19:02:00,68.0,23.0,29.77,WSW,258,8.0,13.0,18,0.00,,,0.00,,2013-03-23 02:02:00,
2013-03-22 19:12:00,68.0,23.0,29.77,WSW,258,8.0,13.0,18,0.00,,,0.00,,2013-03-23 02:12:00,
2013-03-22 19:22:00,66.0,23.0,29.79,WSW,243,6.0,9.0,19,0.00,,,0.00,,2013-03-23 02:22:00,
2013-03-22 19:31:00,65.0,23.0,29.79,WSW,237,8.0,12.0,20,0.00,,,0.00,,2013-03-23 02:31:00,
2013-03-22 19:42:00,65.0,23.0,29.79,WSW,237,8.0,12.0,20,0.00,,,0.00,,2013-03-23 02:42:00,
2013-03-22 19:52:00,64.0,22.0,29.81,WSW,249,5.0,9.0,20,0.00,,,0.00,,2013-03-23 02:52:00,
2013-03-22 20:02:00,64.0,23.0,29.81,WSW,242,4.0,9.0,21,0.00,,,0.00,,2013-03-23 03:02:00,
2013-03-22 20:11:00,64.0,23.0,29.81,WSW,242,4.0,9.0,21,0.00,,,0.00,,2013-03-23 03:11:00,
2013-03-22 20:22:00,63.0,21.0,29.82,WSW,246,7.0,10.0,20,0.00,,,0.00,,2013-03-23 03:22:00,
2013-03-22 20:32:00,62.0,20.0,29.82,SW,230,3.0,11.0,20,0.00,,,0.00,,2013-03-23 03:32:00,
2013-03-22 20:42:00,62.0,20.0,29.82,SW,230,3.0,11.0,20,0.00,,,0.00,,2013-03-23 03:42:00,
2013-03-22 20:53:00,62.0,20.0,29.83,WSW,238,2.0,5.0,20,0.00,,,0.00,,2013-03-23 03:53:00,
2013-03-22 21:02:00,61.0,21.0,29.83,WSW,238,0.0,4.0,21,0.00,,,0.00,,2013-03-23 04:02:00,
2013-03-22 21:12:00,61.0,21.0,29.83,WSW,238,0.0,4.0,21,0.00,,,0.00,,2013-03-23 04:12:00,
2013-03-22 21:22:00,60.0,22.0,29.85,SW,224,4.0,6.0,23,0.00,,,0.00,,2013-03-23 04:22:00,
2013-03-22 21:32:00,59.0,21.0,29.85,SW,222,5.0,6.0,23,0.00,,,0.00,,2013-03-23 04:32:00,
2013-03-22 21:42:00,59.0,21.0,29.85,SW,222,5.0,6.0,23,0.00,,,0.00,,2013-03-23 04:42:00,
2013-03-22 21:53:00,59.0,21.0,29.85,SW,221,4.0,5.0,23,0.00,,,0.00,,2013-03-23 04:53:00,
2013-03-22 22:02:00,58.0,20.0,29.85,WSW,238,4.0,6.0,23,0.00,,,0.00,,2013-03-23 05:02:00,
2013-03-22 22:11:00,58.0,20.0,29.85,WSW,238,4.0,6.0,23,0.00,,,0.00,,2013-03-23 05:11:00,
2013-03-22 22:22:00,59.0,21.0,29.87,WSW,241,3.0,4.0,23,0.00,,,0.00,,2013-03-23 05:22:00,
2013-03-22 22:32:00,58.0,20.0,29.87,WSW,241,2.0,3.0,23,0.00,,,0.00,,2013-03-23 05:32:00,
2013-03-22 22:42:00,58.0,20.0,29.87,WSW,241,2.0,3.0,23,0.00,,,0.00,,2013-03-23 05:42:00,
2013-03-22 22:52:00,58.0,21.0,29.88,WSW,241,2.0,3.0,24,0.00,,,0.00,,2013-03-23 05:52:00,
2013-03-22 23:01:00,58.0,21.0,29.88,WSW,241,2.0,4.0,24,0.00,,,0.00,,2013-03-23 06:01:00,
2013-03-22 23:11:00,58.0,21.0,29.88,WSW,241,2.0,4.0,24,0.00,,,0.00,,2013-03-23 06:11:00,
2013-03-22 23:22:00,57.0,20.0,29.89,NNE,12,3.0,5.0,23,0.00,,,0.00,,2013-03-23 06:22:00,
2013-03-22 23:31:00,57.0,21.0,29.89,NNE,32,2.0,6.0,24,0.00,,,0.00,,2013-03-23 06:31:00,
2013-03-22 23:42:00,57.0,21.0,29.89,NNE,32,2.0,6.0,24,0.00,,,0.00,,2013-03-23 06:42:00,
2013-03-22 23:52:00,56.0,19.0,29.92,NNW,338,4.0,6.0,23,0.00,,,0.00,,2013-03-23 06:52:00,